Notices

What's New in latest Release from April 7th, 2021:

- Updated Glossary, including Speed of Maximum Gust, and Total Hourly Precipitation

- Updated national and regional climate services offices contacts and prices information

- Addition of station inventory lists for 1981-2010, 1971-2000, and 1961-1990 Normals.

If you haven't already, please take our survey and provide feedback about our website: https://eccc.sondage-survey.ca/f/LanguageSelection.aspx?s=442ca660-fcf1-47c0-95a9-59707d6fd709

Hourly Data Report for April 25, 2006

TORONTO CITY
ONTARIO

43°40'00.000" N
79°24'00.000" W
112.50 m
6158355
71508
XTO

Download Data

Hourly Data (April 2006)
Hourly Data Report for April 25, 2006
TIME
LST
Temp Definition
°C
Dew Point Definition
°C
Rel Hum Definition
%
Precip. Amount Definition
mm

Wind Dir Definition
10's deg

Wind Spd Definition
km/h
Visibility Definition
km
Stn Press Definition
kPa
Hmdx Definition


Wind Chill Definition


Weather Definition


00:00 9.3 7.4 88   LegendMM LegendMM   99.46     LegendNANA
01:00 8.2 7.3 94   LegendMM LegendMM   99.41     LegendNANA
02:00 8.3 7.7 96   LegendMM LegendMM   99.33     LegendNANA
03:00 9.2 8.2 93   LegendMM LegendMM   99.33     LegendNANA
04:00 11.0 7.8 81   LegendMM LegendMM   99.33     LegendNANA
05:00 9.5 6.8 83   LegendMM LegendMM   99.40     LegendNANA
06:00 8.8 6.1 83   LegendMM LegendMM   99.54     LegendNANA
07:00 4.0 2.1 87   LegendMM LegendMM   99.66     LegendNANA
08:00 3.6 0.9 82   LegendMM LegendMM   99.76     LegendNANA
09:00 3.1 -0.5 77   LegendMM LegendMM   99.87     LegendNANA
10:00 3.3 -2.6 65   LegendMM LegendMM   99.97     LegendNANA
11:00 4.9 -1.6 63   LegendMM LegendMM   100.02     LegendNANA
12:00 6.1 -2.3 55   LegendMM LegendMM   100.05     LegendNANA
13:00 6.4 -2.8 52   LegendMM LegendMM   100.06     LegendNANA
14:00 7.3 -3.4 47   LegendMM LegendMM   100.05     LegendNANA
15:00 7.7 -3.8 44   LegendMM LegendMM   100.01     LegendNANA
16:00 7.3 -8.0 33   LegendMM LegendMM   100.05     LegendNANA
17:00 7.7 -9.2 29   LegendMM LegendMM   100.05     LegendNANA
18:00 7.6 -7.9 32   LegendMM LegendMM   100.02     LegendNANA
19:00 7.0 -7.2 36   LegendMM LegendMM   100.06     LegendNANA
20:00 6.2 -6.0 41   LegendMM LegendMM   100.14     LegendNANA
21:00 5.4 -3.9 51   LegendMM LegendMM   100.18     LegendNANA
22:00 4.3 -4.6 52   LegendMM LegendMM   100.20     LegendNANA
23:00 3.6 -5.2 53   LegendMM LegendMM   100.22     LegendNANA

Notes on Data Quality.

Legend

  • E = Estimated
  • M = Missing
  • NA = Not Available*
  • [empty] = Indicates an unobserved value
Date modified: